Regional Weather Roundup
Issued by NWS

Home | Current Version | Previous Version | Graphics & Text | Print | Product List | Glossary Off
Versions: 1 2 3 4 5 6 7 8 9 10 11 12 13 14 15 16 17 18 19 20 21 22 23 24 25 26 27 28 29 30 31 32 33 34 35 36 37 38 39 40 41 42 43 44 45 46 47 48 49 50

000
ASUS43 KMKX 301811
RWRWI

WISCONSIN REGIONAL WEATHER ROUNDUP
NATIONAL WEATHER SERVICE MILWAUKEE/SULLIVAN WI
100 PM CDT SAT APR 30 2016

NOTE: "FAIR" INDICATES FEW OR NO CLOUDS BELOW 12,000 FEET WITH NO
SIGNIFICANT WEATHER AND/OR OBSTRUCTIONS TO VISIBILITY.

WIZ001-002-006>008-014>016-023>028-301900-
NORTHWEST WISCONSIN

CITY           SKY/WX    TMP DP  RH WIND       PRES   REMARKS
SUPERIOR ARPT  SUNNY     46  36  70 NE16G24   30.24S
6HR MIN TEMP:  39; 6HR MAX TEMP:  46;

ASHLAND        MOSUNNY   49  38  65 NE18G28   30.25S
6HR MIN TEMP:  37; 6HR MAX TEMP:  50;

HAYWARD        MOSUNNY   54  33  45 NE14G25   30.15F
6HR MIN TEMP:  37; 6HR MAX TEMP:  55;

SIREN          MOSUNNY   58  31  36 NE17G26   30.12F
6HR MIN TEMP:  38; 6HR MAX TEMP:  58;

CUMBERLAND     PTSUNNY   54  32  43 NE17G23   30.10F
RICE LAKE      PTSUNNY   57  31  36 NE17      30.11F
6HR MIN TEMP:  38; 6HR MAX TEMP:  57;

CHETEK         PTSUNNY   56  34  43 E13G18    30.09F
6HR MIN TEMP:  40; 6HR MAX TEMP:  56;

LADYSMITH      PTSUNNY   56  33  40 E15G24    30.13F
6HR MIN TEMP:  38; 6HR MAX TEMP:  56;

EAU CLAIRE     CLOUDY    57  33  40 E17G26    30.06F
6HR MIN TEMP:  40; 6HR MAX TEMP:  57;

MENOMONIE      CLOUDY    58  34  40 NE18G25   30.07F
6HR MIN TEMP:  41; 6HR MAX TEMP:  58;

NEW RICHMOND   CLOUDY    55  31  41 E16G25    30.09S
6HR MIN TEMP:  40; 6HR MAX TEMP:  55;

OSCEOLA        MOSUNNY   57  34  41 NE18      30.12F
6HR MIN TEMP:  40; 6HR MAX TEMP:  57;

$$

WIZ003>005-009-010-017-018-301900-
NORTH CENTRAL WISCONSIN

CITY           SKY/WX    TMP DP  RH WIND       PRES   REMARKS
MANITOWISH WTR CLOUDY    53  32  45 NE16      30.15F
6HR MIN TEMP:  36; 6HR MAX TEMP:  54;

ARBOR VITAE    PTSUNNY   57  33  40 NE10G24   30.14F
6HR MIN TEMP:  39; 6HR MAX TEMP:  57;

WOODRUFF       PTSUNNY   57  33  40 NE10G24   30.14F
6HR MIN TEMP:  39; 6HR MAX TEMP:  57;

RHINELANDER    PTSUNNY   55  31  39 NE8       30.13F
6HR MIN TEMP:  38; 6HR MAX TEMP:  55;

EAGLE RIVER    CLOUDY    54  28  36 NE9G18    30.14F
LAND O LAKES   PTSUNNY   53  30  42 N9G16     30.17S
6HR MIN TEMP:  36; 6HR MAX TEMP:  54;

PHILLIPS       MOSUNNY   54  32  43 NE10G24   30.12F
6HR MIN TEMP:  36; 6HR MAX TEMP:  54;

TOMAHAWK       CLOUDY    55  31  41 NE12      30.13F
6HR MIN TEMP:  37; 6HR MAX TEMP:  55;

MEDFORD        CLOUDY    54  33  45 E15       30.08F
6HR MIN TEMP:  36; 6HR MAX TEMP:  54;

MERRILL        CLOUDY   N/A N/A N/A E15       30.11F
$$

WIZ029-030-035-036-043>047-301900-
CENTRAL WISCONSIN

CITY           SKY/WX    TMP DP  RH WIND       PRES   REMARKS
WAUSAU         CLOUDY    56  30  37 E16       30.07F
6HR MIN TEMP:  42; 6HR MAX TEMP:  57;

MOSINEE        SUNNY     52  32  46 E13G20    30.11F
MARSHFIELD     CLOUDY    53  33  46 E13       30.06F
6HR MIN TEMP:  40; 6HR MAX TEMP:  53;

STEVENS POINT  CLOUDY    51  32  48 E14       30.10F
6HR MIN TEMP:  37; 6HR MAX TEMP:  51;

WAUPACA        CLOUDY    55  37  52 E9        30.10F
6HR MIN TEMP:  40; 6HR MAX TEMP:  55;

WAUTOMA        CLOUDY    52  36  54 E15G23    30.07
6HR MIN TEMP:  40; 6HR MAX TEMP:  52;

WISC RAPIDS    CLOUDY    53  33  46 E15       30.08F
6HR MIN TEMP:  40; 6HR MAX TEMP:  53;

CAMP DOUGLAS   CLOUDY    50  43  76 E15       30.05F
$$

WIZ011>013-019>022-031-037>040-048>050-301900-
NORTHEAST WISCONSIN

CITY           SKY/WX    TMP DP  RH WIND       PRES   REMARKS
ANTIGO         CLOUDY    53  32  43 E15G23    30.11F
6HR MIN TEMP:  37; 6HR MAX TEMP:  54;

SHAWANO        CLOUDY    56  33  41 E15       30.13F
6HR MIN TEMP:  41; 6HR MAX TEMP:  56;

OCONTO         PTSUNNY   52  31  45 E12G20    30.14F
6HR MIN TEMP:  40; 6HR MAX TEMP:  53;

STURGEON BAY   CLOUDY    48  34  57 NE12      30.17F
6HR MIN TEMP:  39; 6HR MAX TEMP:  48;

GREEN BAY      CLOUDY    52  38  58 NE15      30.12F
6HR MIN TEMP:  43; 6HR MAX TEMP:  52;

MANITOWOC      PTSUNNY   50  38  63 MISG      30.12F
6HR MIN TEMP:  38; 6HR MAX TEMP:  52;

APPLETON       CLOUDY    54  34  47 E14       30.09F
CLINTONVILLE   CLOUDY    54  30  40 E12G20    30.11F
OSHKOSH        CLOUDY    53  37  54 E14       30.09F
6HR MIN TEMP:  43; 6HR MAX TEMP:  53;

$$

WIZ032>034-041-042-053>061-301900-
SOUTHWEST WISCONSIN

CITY           SKY/WX    TMP DP  RH WIND       PRES   REMARKS
LA CROSSE      CLOUDY    51  35  54 E14G25    30.02F
6HR MIN TEMP:  44; 6HR MAX TEMP:  52;

SPARTA         CLOUDY    52  37  57 E15       30.04S
6HR MIN TEMP:  39; 6HR MAX TEMP:  52;

VIROQUA        CLOUDY    47  40  78 E17       30.00S
6HR MIN TEMP:  42; 6HR MAX TEMP:  47;

BOSCOBEL       LGT RAIN  49  44  83 E9        30.00F
6HR MIN TEMP:  46; 6HR MAX TEMP:  50; 6HR PCP:  0.05;

PRAIRIE DU CHI LGT RAIN  47  42  84 NE12G21   29.95F
6HR MIN TEMP:  45; 6HR MAX TEMP:  49; 6HR PCP:  0.12;

PLATTEVILLE    CLOUDY    46  45  94 NE20G26   29.94F
$$

WIZ056-057-062-063-064-067-068-301900-
SOUTH CENTRAL WISCONSIN

CITY           SKY/WX    TMP DP  RH WIND       PRES   REMARKS
REEDSBURG      CLOUDY    49  40  69 E10G20    30.02F
6HR MIN TEMP:  40; 6HR MAX TEMP:  49;

BARABOO/DELLS  CLOUDY    49  38  64 E12G22    30.03F
6HR MIN TEMP:  39; 6HR MAX TEMP:  50;

LONE ROCK      LGT RAIN  48  43  82 E15       30.02S
6HR MIN TEMP:  45; 6HR MAX TEMP:  49; 6HR PCP:  0.03;

MINERAL POINT  LGT RAIN  46  45  93 NE16G23   29.97S
MADISON        LGT RAIN  48  41  76 E15       30.01F
6HR MIN TEMP:  43; 6HR MAX TEMP:  49; 6HR PCP:  0.02;

MIDDLETON      CLOUDY    49  42  79 E15G23    30.02S
6HR MIN TEMP:  45; 6HR MAX TEMP:  49; 6HR PCP:  0.01;

WATERTOWN      CLOUDY    49  39  68 E16       30.02F
6HR MIN TEMP:  41; 6HR MAX TEMP:  49;

MONROE         LGT RAIN  45  43  93 NE12G20   29.98R
JANESVILLE     LGT RAIN  48  43  81 E18G24    29.98F
$$

WIZ051-052-058>065-066-070>072-301900-
SOUTHEAST WISCONSIN

CITY           SKY/WX    TMP DP  RH WIND       PRES   REMARKS
MILWAUKEE      CLOUDY    45  39  79 E17       30.05F
6HR MIN TEMP:  43; 6HR MAX TEMP:  46; 6HR PCP: TRACE;

WAUKESHA       LGT RAIN  45  36  70 E15G22    30.05F FOG
MILWAUKEE/TIMM CLOUDY    46  36  66 E12       30.07F
RACINE         LGT RAIN  45  39  79 E15       30.05F
6HR MIN TEMP:  43; 6HR MAX TEMP:  46; 6HR PCP: TRACE;

BURLINGTON     RAIN      45  40  82 E14G20    30.02S
6HR MIN TEMP:  42; 6HR MAX TEMP:  46;

KENOSHA        LGT RAIN  45  40  82 E16       30.03F
6HR MIN TEMP:  44; 6HR MAX TEMP:  47; 6HR PCP:  0.02;

FOND DU LAC    CLOUDY    53  36  52 E16G22    30.07F
6HR MIN TEMP:  41; 6HR MAX TEMP:  53;

SHEBOYGAN      CLOUDY    49  39  68 E12       30.10F
6HR MIN TEMP:  39; 6HR MAX TEMP:  50;

WEST BEND      CLOUDY    48  34  57 E15G21    30.05F
JUNEAU         CLOUDY    49  36  60 NE18G25   30.05F
6HR MIN TEMP:  40; 6HR MAX TEMP:  49;

$$

LSZ147-162-301900-
LAKE SUPERIOR

STATION/POSITION TIME  TEMP    WIND        PRES    WAVE
                       AIR SEA DIR/SP/G            HT/PER
                 (UTC) (F)     (DEG/KT/KT) (MB)    (FT/S)
W MID LAKE BUOY  1750   39 37   60/ 14/ 16 1026.3F   1/ 3
DEVILS ISLAND    1800   40      80/ 20/ 22 1026.0F
PORT WING        1533   41      30/ 21/ 25 1024.7
SAXON HARBOR     1700   40      40/ 21/ 26 1023.7
$$

LMZ867-665-643>646-301900-
LAKE MICHIGAN

STATION/POSITION TIME  TEMP    WIND        PRES    WAVE
                       AIR SEA DIR/SP/G            HT/PER
                 (UTC) (F)     (DEG/KT/KT) (MB)    (FT/S)
CHAMBERS ISLAND  1700   44      20/ 10/ 13 1022.0F
N MID LAKE BUOY  1750   40 39   40/ 10/ 10 1022.0F   1/ 3
NORTHPORT PIER   17C1F1C2F2C3F3C4F4C5F5C6F6C7F7C8M1C9M2Ca!



USA.gov is the U.S. government's official web portal to all federal, state and local government web resources and services.